Weather History for KLGA - October, 2010

Change the Weather History Date:

Monday, October 18, 2010

  Actual Average Record
Temperature  
Mean Temperature 57 °F 57 °F  
Max Temperature 61 °F 64 °F 79 °F (2007)
Min Temperature 53 °F 50 °F 37 °F (1974)
Degree Days  
Heating Degree Days 8 8  
Month to date heating degree days 76 105  
Since 1 July heating degree days 76 140  
Cooling Degree Days 0 0  
Month to date cooling degree days 10 20  
Year to date cooling degree days 1709 1210  
Growing Degree Days 7 (Base 50)    
Moisture  
Dew Point 37 °F    
Average Humidity 48    
Maximum Humidity 61    
Minimum Humidity 35    
Precipitation  
Precipitation 0.00 in 0.12 in 1.33 in (1975)
Month to date precipitation 4.30 2.24  
Year to date precipitation 35.42 36.22  
Snow  
Snow 0.00 in 0.00 in - ()
Month to date snowfall 0.0 0.0  
Since 1 July snowfall 0.0 0.0  
Snow Depth 0.00 in    
Sea Level Pressure  
Sea Level Pressure 29.93 in    
Wind  
Wind Speed 11 mph (WNW)    
Max Wind Speed 17 mph    
Max Gust Speed 24 mph    
Visibility 10 miles    
Events      
T = Trace of Precipitation, MM = Missing Value Source: NWS Daily Summary

Daily Weather History Graph

Daily Weather History Graph

Search for Another Location

Airport or City:

Trip Planner

Search our weather history database for the weather conditions in past years. The results will help you decide how hot, cold, wet, or windy it might be!

Date:

Astronomy

Oct. 18, 2010 Rise Set
Actual Time 7:09 AM EDT 6:10 PM EDT
Civil Twilight 6:42 AM EDT 6:38 PM EDT
Nautical Twilight 6:10 AM EDT 7:10 PM EDT
Astronomical Twilight 5:38 AM EDT 7:41 PM EDT
Moon 3:55 PM EDT (10/18) 2:54 AM EDT (10/18)
Length of Visible Light 11h 56m
Length of Day
11h 00m
Waxing Gibbous, 83% of the Moon is Illuminated
Oct 18
Waxing Gibbous
Oct 22
Full
Oct 30
Last Quarter
Nov 6
New
Nov 13
First Quarter

Hourly Weather History & Observations

Time (EDT) Temp. Dew Point Humidity Pressure Visibility Wind Dir Wind Speed Gust Speed Precip Events Conditions
12:51 AM 59.0 °F 34.0 °F 39% 29.89 in 10.0 mi West 5.8 mph - N/A   Clear
1:51 AM 57.9 °F 33.1 °F 39% 29.90 in 10.0 mi West 6.9 mph - N/A   Clear
2:51 AM 57.0 °F 37.0 °F 47% 29.90 in 10.0 mi WNW 9.2 mph - N/A   Clear
3:51 AM 55.9 °F 37.9 °F 51% 29.91 in 10.0 mi NW 10.4 mph - N/A   Clear
4:51 AM 55.0 °F 37.9 °F 53% 29.92 in 10.0 mi NW 12.7 mph - N/A   Clear
5:51 AM 54.0 °F 37.9 °F 55% 29.93 in 10.0 mi WNW 8.1 mph - N/A   Partly Cloudy
6:51 AM 53.1 °F 37.9 °F 57% 29.94 in 10.0 mi WNW 11.5 mph - N/A   Mostly Cloudy
7:51 AM 53.1 °F 39.0 °F 59% 29.96 in 10.0 mi NW 12.7 mph - N/A   Mostly Cloudy
8:51 AM 54.0 °F 37.9 °F 55% 29.99 in 10.0 mi WNW 10.4 mph - N/A   Mostly Cloudy
9:51 AM 54.0 °F 37.9 °F 55% 29.99 in 10.0 mi NW 13.8 mph - N/A   Mostly Cloudy
10:51 AM 57.0 °F 37.0 °F 47% 29.98 in 10.0 mi NNW 11.5 mph - N/A   Mostly Cloudy
11:51 AM 57.0 °F 36.0 °F 45% 29.97 in 10.0 mi West 8.1 mph - N/A   Overcast
12:51 PM 59.0 °F 35.1 °F 41% 29.94 in 10.0 mi West 10.4 mph - N/A   Mostly Cloudy
1:51 PM 60.1 °F 32.0 °F 35% 29.91 in 10.0 mi WNW 10.4 mph - N/A   Mostly Cloudy
2:51 PM 61.0 °F 34.0 °F 36% 29.90 in 10.0 mi WNW 16.1 mph - N/A   Mostly Cloudy
3:51 PM 61.0 °F 33.1 °F 35% 29.89 in 10.0 mi West 12.7 mph 20.7 mph N/A   Overcast
4:51 PM 59.0 °F 37.0 °F 44% 29.89 in 10.0 mi WSW 11.5 mph 23.0 mph N/A   Overcast
5:51 PM 57.9 °F 37.0 °F 46% 29.89 in 10.0 mi West 12.7 mph 20.7 mph N/A   Overcast
6:51 PM 57.9 °F 37.9 °F 47% 29.90 in 10.0 mi WSW 6.9 mph - N/A   Mostly Cloudy
7:51 PM 57.0 °F 39.0 °F 51% 29.92 in 10.0 mi West 11.5 mph - N/A   Mostly Cloudy
8:51 PM 55.9 °F 39.9 °F 55% 29.92 in 10.0 mi West 12.7 mph - N/A   Mostly Cloudy
9:51 PM 55.9 °F 41.0 °F 57% 29.93 in 10.0 mi NW 8.1 mph - N/A   Mostly Cloudy
10:51 PM 55.0 °F 42.1 °F 62% 29.94 in 10.0 mi NW 10.4 mph - N/A   Overcast
11:51 PM 55.0 °F 42.1 °F 62% 29.94 in 10.0 mi NW 9.2 mph - N/A   Overcast